Terminal Aerodrome Forecast
Issued by NWS Louisville, KY

Home | Current Version | Previous Version | Text Only | Print | Product List | Glossary On
Versions: 1 2 3 4 5 6 7 8 9 10 11 12 13 14 15 16 17 18 19 20 21 22 23 24 25 26 27 28 29 30 31
000
FTUS43 KLMK 011300 AAA
TAFSDF
TAF AMD
KSDF 011302Z 0113/0218 21009KT P6SM BKN050
     FM011500 22014G19KT P6SM BKN050
     FM020000 20010KT P6SM BKN120
     FM020900 21009KT P6SM VCTS SCT025CB BKN040=

USA.gov is the U.S. government's official web portal to all federal, state and local government web resources and services.